Location: Newark
(29.9790°N, 31.1340°E)
Time: 01:57:20
(UTC+00:00)

Transit 2A Rocket - Pass Details

Date: 20 January 2020
Orbit: 591 x 912 km, 66.7° (Epoch: 25 February)

Event Time Altitude Azimuth Distance (km) Brightness Sun altitude
Rises 02:32:27 0° 158° (SSE) 2,909 8.4 -29.8°
Reaches altitude 10° 02:36:27 10° 122° (ESE) 1,954 7.9 -28.9°
Maximum altitude 02:37:39 11° 106° (ESE) 1,878 7.9 -28.6°
Drops below altitude 10° 02:38:51 10° 90° (E) 1,935 8.0 -28.4°
Sets 02:42:44 0° 54° (NE) 2,823 8.6 -27.6°
